Time,TemperatureF,DewpointF,PressureIn,WindDirection,WindDirectionDegrees,WindSpeedMPH,WindSpeedGustMPH,Humidity,HourlyPrecipIn,Conditions,Clouds,dailyrainin,SoftwareType,DateUTC
2013-04-21 00:01:00,62.0,25.0,30.01,WSW,244,7.0,10.0,24,0.00,,,0.00,,2013-04-21 07:01:00,
2013-04-21 00:11:00,62.0,22.0,30.01,WSW,240,6.0,9.0,21,0.00,,,0.00,,2013-04-21 07:11:00,
2013-04-21 00:21:00,62.0,22.0,30.01,WSW,240,6.0,9.0,21,0.00,,,0.00,,2013-04-21 07:21:00,
2013-04-21 00:31:00,63.0,24.0,30.01,WSW,238,3.0,6.0,22,0.00,,,0.00,,2013-04-21 07:31:00,
2013-04-21 00:41:00,63.0,24.0,30.01,WSW,238,3.0,6.0,22,0.00,,,0.00,,2013-04-21 07:41:00,
2013-04-21 00:52:00,62.0,25.0,30.01,WSW,238,2.0,3.0,24,0.00,,,0.00,,2013-04-21 07:52:00,
2013-04-21 01:01:00,61.0,28.0,30.01,WSW,238,0.0,4.0,28,0.00,,,0.00,,2013-04-21 08:01:00,
2013-04-21 01:11:00,61.0,24.0,30.01,SW,233,2.0,5.0,24,0.00,,,0.00,,2013-04-21 08:11:00,
2013-04-21 01:21:00,61.0,24.0,30.01,SW,233,2.0,5.0,24,0.00,,,0.00,,2013-04-21 08:21:00,
2013-04-21 01:31:00,59.0,24.0,30.01,WSW,246,1.0,3.0,26,0.00,,,0.00,,2013-04-21 08:31:00,
2013-04-21 01:41:00,59.0,24.0,30.01,WSW,246,1.0,3.0,26,0.00,,,0.00,,2013-04-21 08:41:00,
2013-04-21 01:52:00,59.0,26.0,30.00,WSW,246,1.0,2.0,28,0.00,,,0.00,,2013-04-21 08:52:00,
2013-04-21 02:01:00,59.0,26.0,29.99,WSW,246,0.0,3.0,28,0.00,,,0.00,,2013-04-21 09:01:00,
2013-04-21 02:11:00,59.0,26.0,29.99,WSW,246,0.0,3.0,28,0.00,,,0.00,,2013-04-21 09:11:00,
2013-04-21 02:21:00,60.0,22.0,29.99,SE,146,2.0,7.0,23,0.00,,,0.00,,2013-04-21 09:21:00,
2013-04-21 02:32:00,58.0,24.0,29.99,SW,216,0.0,3.0,27,0.00,,,0.00,,2013-04-21 09:32:00,
2013-04-21 02:42:00,58.0,24.0,29.99,SW,216,0.0,3.0,27,0.00,,,0.00,,2013-04-21 09:42:00,
2013-04-21 02:53:00,56.0,22.0,29.99,SW,217,0.0,3.0,26,0.00,,,0.00,,2013-04-21 09:53:00,
2013-04-21 03:02:00,56.0,22.0,29.99,SW,216,0.0,1.0,26,0.00,,,0.00,,2013-04-21 10:02:00,
2013-04-21 03:12:00,56.0,22.0,29.99,SW,216,0.0,1.0,26,0.00,,,0.00,,2013-04-21 10:12:00,
2013-04-21 03:22:00,56.0,23.0,29.99,SW,216,1.0,2.0,27,0.00,,,0.00,,2013-04-21 10:22:00,
2013-04-21 03:32:00,54.0,24.0,29.99,SW,216,0.0,3.0,31,0.00,,,0.00,,2013-04-21 10:32:00,
2013-04-21 03:42:00,54.0,24.0,29.99,SW,216,0.0,3.0,31,0.00,,,0.00,,2013-04-21 10:42:00,
2013-04-21 03:52:00,55.0,20.0,29.98,SSW,213,2.0,4.0,25,0.00,,,0.00,,2013-04-21 10:52:00,
2013-04-21 04:02:00,53.0,22.0,29.99,SSW,213,0.0,0.0,29,0.00,,,0.00,,2013-04-21 11:02:00,
2013-04-21 04:11:00,53.0,22.0,29.99,SSW,213,0.0,0.0,29,0.00,,,0.00,,2013-04-21 11:11:00,
2013-04-21 04:22:00,51.0,21.0,29.97,SSW,213,0.0,1.0,31,0.00,,,0.00,,2013-04-21 11:22:00,
2013-04-21 04:33:00,51.0,20.0,29.97,SSW,213,2.0,2.0,29,0.00,,,0.00,,2013-04-21 11:33:00,
2013-04-21 04:52:00,51.0,22.0,29.97,SSW,213,0.0,0.0,32,0.00,,,0.00,,2013-04-21 11:52:00,
2013-04-21 05:02:00,50.0,21.0,29.97,SSW,213,0.0,1.0,32,0.00,,,0.00,,2013-04-21 12:02:00,
2013-04-21 05:12:00,50.0,18.0,29.97,SSW,213,0.0,3.0,28,0.00,,,0.00,,2013-04-21 12:12:00,
2013-04-21 05:22:00,50.0,18.0,29.97,SSW,213,0.0,3.0,28,0.00,,,0.00,,2013-04-21 12:22:00,
2013-04-21 05:31:00,50.0,17.0,29.98,SSW,213,1.0,2.0,27,0.00,,,0.00,,2013-04-21 12:31:00,
2013-04-21 05:52:00,49.0,20.0,29.98,SSW,213,0.0,3.0,31,0.00,,,0.00,,2013-04-21 12:52:00,
2013-04-21 06:01:00,50.0,18.0,29.98,SSW,213,0.0,0.0,28,0.00,,,0.00,,2013-04-21 13:01:00,
2013-04-21 06:32:00,49.0,16.0,29.98,SSW,213,0.0,2.0,26,0.00,,,0.00,,2013-04-21 13:32:00,
2013-04-21 06:52:00,49.0,14.0,29.99,SW,214,0.0,2.0,24,0.00,,,0.00,,2013-04-21 13:52:00,
2013-04-21 07:01:00,51.0,12.0,29.99,SW,214,0.0,0.0,21,0.00,,,0.00,,2013-04-21 14:01:00,
2013-04-21 07:21:00,53.0,20.0,29.99,SW,214,0.0,0.0,27,0.00,,,0.00,,2013-04-21 14:21:00,
2013-04-21 07:31:00,54.0,18.0,30.01,SW,214,1.0,2.0,24,0.00,,,0.00,,2013-04-21 14:31:00,
2013-04-21 07:42:00,54.0,18.0,30.01,SW,214,1.0,2.0,24,0.00,,,0.00,,2013-04-21 14:42:00,
2013-04-21 07:52:00,58.0,25.0,30.02,SW,214,0.0,0.0,28,0.00,,,0.00,,2013-04-21 14:52:00,
2013-04-21 08:01:00,58.0,13.0,30.00,SW,214,0.0,0.0,17,0.00,,,0.00,,2013-04-21 15:01:00,
2013-04-21 08:11:00,58.0,13.0,30.00,SW,214,0.0,0.0,17,0.00,,,0.00,,2013-04-21 15:11:00,
2013-04-21 08:22:00,61.0,14.0,30.01,SW,214,0.0,2.0,16,0.00,,,0.00,,2013-04-21 15:22:00,
2013-04-21 08:33:00,64.0,20.0,30.01,WSW,253,3.0,5.0,18,0.00,,,0.00,,2013-04-21 15:33:00,
2013-04-21 08:42:00,64.0,20.0,30.01,WSW,253,3.0,5.0,18,0.00,,,0.00,,2013-04-21 15:42:00,
2013-04-21 08:53:00,65.0,19.0,30.01,WSW,253,3.0,4.0,17,0.00,,,0.00,,2013-04-21 15:53:00,
2013-04-21 09:03:00,68.0,27.0,30.02,WSW,253,0.0,2.0,21,0.00,,,0.00,,2013-04-21 16:03:00,
2013-04-21 09:12:00,68.0,27.0,30.02,WSW,253,0.0,2.0,21,0.00,,,0.00,,2013-04-21 16:12:00,
2013-04-21 09:22:00,69.0,21.0,30.02,WSW,238,3.0,8.0,16,0.00,,,0.00,,2013-04-21 16:22:00,
2013-04-21 09:32:00,73.0,24.0,30.03,SW,236,6.0,10.0,16,0.00,,,0.00,,2013-04-21 16:32:00,
2013-04-21 09:42:00,73.0,24.0,30.03,SW,236,6.0,10.0,16,0.00,,,0.00,,2013-04-21 16:42:00,
2013-04-21 09:52:00,73.0,24.0,30.03,SE,130,3.0,11.0,16,0.00,,,0.00,,2013-04-21 16:52:00,
2013-04-21 10:01:00,72.0,23.0,30.03,SE,137,10.0,14.0,16,0.00,,,0.00,,2013-04-21 17:01:00,
2013-04-21 10:12:00,72.0,25.0,30.03,South,170,8.0,14.0,17,0.00,,,0.00,,2013-04-21 17:12:00,
2013-04-21 10:22:00,72.0,25.0,30.03,South,170,8.0,14.0,17,0.00,,,0.00,,2013-04-21 17:22:00,
2013-04-21 10:32:00,73.0,26.0,30.03,SSE,166,5.0,15.0,17,0.00,,,0.00,,2013-04-21 17:32:00,
2013-04-21 10:41:00,73.0,26.0,30.03,SSE,166,5.0,15.0,17,0.00,,,0.00,,2013-04-21 17:41:00,
2013-04-21 10:52:00,74.0,26.0,30.03,SSE,163,6.0,15.0,17,0.00,,,0.00,,2013-04-21 17:52:00,
2013-04-21 11:02:00,74.0,25.0,30.03,SE,141,12.0,17.0,16,0.00,,,0.00,,2013-04-21 18:02:00,
2013-04-21 11:11:00,74.0,25.0,30.03,SE,141,12.0,17.0,16,0.00,,,0.00,,2013-04-21 18:11:00,
2013-04-21 11:21:00,75.0,26.0,30.03,South,184,5.0,12.0,16,0.00,,,0.00,,2013-04-21 18:21:00,
2013-04-21 11:32:00,76.0,27.0,30.02,WSW,237,10.0,18.0,16,0.00,,,0.00,,2013-04-21 18:32:00,
2013-04-21 11:42:00,76.0,27.0,30.02,WSW,237,10.0,18.0,16,0.00,,,0.00,,2013-04-21 18:42:00,
2013-04-21 11:52:00,77.0,26.0,30.02,SE,137,6.0,14.0,15,0.00,,,0.00,,2013-04-21 18:52:00,
2013-04-21 12:02:00,78.0,23.0,30.03,South,173,11.0,16.0,13,0.00,,,0.00,,2013-04-21 19:02:00,
2013-04-21 12:11:00,78.0,23.0,30.03,South,173,11.0,16.0,13,0.00,,,0.00,,2013-04-21 19:11:00,
2013-04-21 12:21:00,77.0,20.0,30.01,SSW,205,10.0,19.0,12,0.00,,,0.00,,2013-04-21 19:21:00,
2013-04-21 12:31:00,78.0,21.0,30.01,South,183,10.0,17.0,12,0.00,,,0.00,,2013-04-21 19:31:00,
2013-04-21 12:42:00,78.0,21.0,30.01,South,183,10.0,17.0,12,0.00,,,0.00,,2013-04-21 19:42:00,
2013-04-21 12:52:00,79.0,22.0,30.02,South,179,10.0,17.0,12,0.00,,,0.00,,2013-04-21 19:52:00,
2013-04-21 13:01:00,79.0,15.0,30.00,South,179,10.0,18.0,9,0.00,,,0.00,,2013-04-21 20:01:00,
2013-04-21 13:11:00,79.0,15.0,30.00,South,179,10.0,18.0,9,0.00,,,0.00,,2013-04-21 20:11:00,
2013-04-21 13:21:00,80.0,23.0,30.02,SE,137,8.0,19.0,12,0.00,,,0.00,,2013-04-21 20:21:00,
2013-04-21 13:31:00,79.0,22.0,29.99,SSE,153,10.0,19.0,12,0.00,,,0.00,,2013-04-21 20:31:00,
2013-04-21 13:41:00,79.0,22.0,29.99,SSE,153,10.0,19.0,12,0.00,,,0.00,,2013-04-21 20:41:00,
2013-04-21 13:52:00,80.0,21.0,30.01,SSE,166,11.0,18.0,11,0.00,,,0.00,,2013-04-21 20:52:00,
2013-04-21 14:01:00,80.0,23.0,30.01,South,186,12.0,22.0,12,0.00,,,0.00,,2013-04-21 21:01:00,
2013-04-21 14:12:00,79.0,24.0,29.99,SSE,163,11.0,21.0,13,0.00,,,0.00,,2013-04-21 21:12:00,
2013-04-21 14:21:00,79.0,24.0,29.99,SSE,163,11.0,21.0,13,0.00,,,0.00,,2013-04-21 21:21:00,
2013-04-21 14:32:00,79.0,26.0,30.00,SSE,161,12.0,22.0,14,0.00,,,0.00,,2013-04-21 21:32:00,
2013-04-21 14:43:00,79.0,26.0,30.00,SSE,161,12.0,22.0,14,0.00,,,0.00,,2013-04-21 21:43:00,
2013-04-21 14:53:00,79.0,29.0,29.99,SW,229,12.0,22.0,16,0.00,,,0.00,,2013-04-21 21:53:00,
2013-04-21 15:02:00,79.0,32.0,29.99,SE,135,12.0,24.0,18,0.00,,,0.00,,2013-04-21 22:02:00,
2013-04-21 15:12:00,79.0,32.0,29.99,South,186,15.0,24.0,18,0.00,,,0.00,,2013-04-21 22:12:00,
2013-04-21 15:22:00,79.0,32.0,29.99,South,186,15.0,24.0,18,0.00,,,0.00,,2013-04-21 22:22:00,
2013-04-21 15:32:00,79.0,32.0,29.97,South,173,12.0,25.0,18,0.00,,,0.00,,2013-04-21 22:32:00,
2013-04-21 15:42:00,79.0,32.0,29.97,South,173,12.0,25.0,18,0.00,,,0.00,,2013-04-21 22:42:00,
2013-04-21 15:52:00,78.0,32.0,29.97,SSE,163,14.0,24.0,19,0.00,,,0.00,,2013-04-21 22:52:00,
2013-04-21 16:02:00,78.0,34.0,29.97,SW,216,16.0,27.0,20,0.00,,,0.00,,2013-04-21 23:02:00,
2013-04-21 16:11:00,78.0,34.0,29.97,SW,216,16.0,27.0,20,0.00,,,0.00,,2013-04-21 23:11:00,
2013-04-21 16:22:00,78.0,34.0,29.97,SE,134,13.0,21.0,20,0.00,,,0.00,,2013-04-21 23:22:00,
2013-04-21 16:32:00,78.0,34.0,29.97,South,191,10.0,23.0,20,0.00,,,0.00,,2013-04-21 23:32:00,
2013-04-21 16:42:00,78.0,34.0,29.97,South,191,10.0,23.0,20,0.00,,,0.00,,2013-04-21 23:42:00,
2013-04-21 16:52:00,77.0,34.0,29.98,South,186,15.0,20.0,21,0.00,,,0.00,,2013-04-21 23:52:00,
2013-04-21 17:01:00,78.0,35.0,29.97,SSE,165,9.0,21.0,21,0.00,,,0.00,,2013-04-22 00:01:00,
2013-04-21 17:11:00,78.0,35.0,29.97,SSE,165,9.0,21.0,21,0.00,,,0.00,,2013-04-22 00:11:00,
2013-04-21 17:21:00,77.0,35.0,29.97,SW,230,9.0,17.0,22,0.00,,,0.00,,2013-04-22 00:21:00,
2013-04-21 17:31:00,77.0,35.0,29.98,West,265,12.0,20.0,22,0.00,,,0.00,,2013-04-22 00:31:00,
2013-04-21 17:42:00,77.0,35.0,29.98,West,265,12.0,20.0,22,0.00,,,0.00,,2013-04-22 00:42:00,
2013-04-21 17:51:00,77.0,34.0,29.98,SW,232,6.0,18.0,21,0.00,,,0.00,,2013-04-22 00:51:00,
2013-04-21 18:01:00,75.0,32.0,29.98,WSW,239,11.0,18.0,21,0.00,,,0.00,,2013-04-22 01:01:00,
2013-04-21 18:11:00,75.0,32.0,29.98,WSW,239,11.0,18.0,21,0.00,,,0.00,,2013-04-22 01:11:00,
2013-04-21 18:21:00,75.0,32.0,29.99,WSW,250,10.0,18.0,21,0.00,,,0.00,,2013-04-22 01:21:00,
2013-04-21 18:32:00,75.0,32.0,29.98,SW,225,4.0,19.0,21,0.00,,,0.00,,2013-04-22 01:32:00,
2013-04-21 18:41:00,75.0,32.0,29.98,SW,225,4.0,19.0,21,0.00,,,0.00,,2013-04-22 01:41:00,
2013-04-21 18:52:00,74.0,33.0,29.98,WSW,248,9.0,16.0,22,0.00,,,0.00,,2013-04-22 01:52:00,
2013-04-21 19:01:00,73.0,33.0,29.98,SW,235,9.0,14.0,23,0.00,,,0.00,,2013-04-22 02:01:00,
2013-04-21 19:11:00,73.0,33.0,29.98,SW,235,9.0,14.0,23,0.00,,,0.00,,2013-04-22 02:11:00,
2013-04-21 19:21:00,71.0,33.0,29.99,WSW,242,8.0,17.0,25,0.00,,,0.00,,2013-04-22 02:21:00,
2013-04-21 19:31:00,70.0,34.0,29.98,South,184,7.0,15.0,26,0.00,,,0.00,,2013-04-22 02:31:00,
2013-04-21 19:41:00,70.0,34.0,29.98,South,184,7.0,15.0,26,0.00,,,0.00,,2013-04-22 02:41:00,
2013-04-21 19:52:00,69.0,33.0,29.98,SW,225,9.0,15.0,26,0.00,,,0.00,,2013-04-22 02:52:00,
2013-04-21 20:01:00,68.0,32.0,29.99,WSW,246,7.0,15.0,26,0.00,,,0.00,,2013-04-22 03:01:00,
2013-04-21 20:11:00,68.0,32.0,29.99,WSW,246,7.0,15.0,26,0.00,,,0.00,,2013-04-22 03:11:00,
2013-04-21 20:22:00,67.0,29.0,29.99,SSW,213,10.0,16.0,24,0.00,,,0.00,,2013-04-22 03:22:00,
2013-04-21 20:33:00,67.0,28.0,29.99,South,188,9.0,16.0,23,0.00,,,0.00,,2013-04-22 03:33:00,
2013-04-21 20:42:00,67.0,28.0,29.99,South,188,9.0,16.0,23,0.00,,,0.00,,2013-04-22 03:42:00,
2013-04-21 20:52:00,66.0,29.0,30.01,SW,226,6.0,11.0,25,0.00,,,0.00,,2013-04-22 03:52:00,
2013-04-21 21:02:00,65.0,30.0,30.01,SSW,192,8.0,14.0,27,0.00,,,0.00,,2013-04-22 04:02:00,
2013-04-21 21:12:00,65.0,30.0,30.01,SSW,192,8.0,14.0,27,0.00,,,0.00,,2013-04-22 04:12:00,
2013-04-21 21:23:00,64.0,30.0,30.02,SW,227,7.0,13.0,28,0.00,,,0.00,,2013-04-22 04:23:00,
2013-04-21 21:32:00,64.0,27.0,30.01,SSW,200,3.0,11.0,25,0.00,,,0.00,,2013-04-22 04:32:00,
2013-04-21 21:43:00,64.0,27.0,30.01,SSW,200,3.0,11.0,25,0.00,,,0.00,,2013-04-22 04:43:00,
2013-04-21 21:52:00,64.0,25.0,30.02,WSW,248,3.0,8.0,23,0.00,,,0.00,,2013-04-22 04:52:00,
2013-04-21 22:02:00,65.0,22.0,30.02,SW,229,3.0,10.0,19,0.00,,,0.00,,2013-04-22 05:02:00,
2013-04-21 22:11:00,65.0,22.0,30.02,SW,229,3.0,10.0,19,0.00,,,0.00,,2013-04-22 05:11:00,
2013-04-21 22:22:00,65.0,24.0,30.02,SW,232,5.0,11.0,21,0.00,,,0.00,,2013-04-22 05:22:00,
2013-04-21 22:32:00,66.0,26.0,30.03,SSW,208,3.0,15.0,22,0.00,,,0.00,,2013-04-22 05:32:00,
2013-04-21 22:42:00,66.0,26.0,30.03,SSW,208,3.0,15.0,22,0.00,,,0.00,,2013-04-22 05:42:00,
2013-04-21 22:52:00,63.0,27.0,30.01,West,272,3.0,5.0,25,0.00,,,0.00,,2013-04-22 05:52:00,
2013-04-21 23:02:00,62.0,27.0,30.01,West,272,2.0,3.0,26,0.00,,,0.00,,2013-04-22 06:02:00,
2013-04-21 23:11:00,62.0,27.0,30.01,West,272,2.0,3.0,26,0.00,,,0.00,,2013-04-22 06:11:00,
2013-04-21 23:21:00,62.0,28.0,30.01,WNW,300,4.0,6.0,27,0.00,,,0.00,,2013-04-22 06:21:00,
2013-04-21 23:32:00,61.0,27.0,30.00,West,275,5.0,7.0,27,0.00,,,0.00,,2013-04-22 06:32:00,
2013-04-21 23:41:00,61.0,27.0,30.00,West,275,5.0,7.0,27,0.00,,,0.00,,2013-04-22 06:41:00,
2013-04-21 23:52:00,61.0,27.0,30.00,West,268,5.0,9.0,27,0.00,,,0.00,,2013-04-22 06:52:00,